Hot Springs, VA

2:21 PM EDT on March 29, 2017 (GMT -0400)
Ingalls

Weather History for KHSP - January, 2012

Change the Weather History Date:

Tuesday, January 31, 2012

  Actual Average Record
Temperature  
Mean Temperature 47 °F -  
Max Temperature 55 °F 33 °F 66 °F (2002)
Min Temperature 39 °F 19 °F -5 °F (2004)
Degree Days  
Heating Degree Days 18    
Moisture  
Dew Point 22 °F    
Average Humidity 39    
Maximum Humidity 45    
Minimum Humidity 30    
Precipitation  
Precipitation 0.00 in - - ()
Sea Level Pressure  
Sea Level Pressure 30.24 in    
Wind  
Wind Speed 20 mph (West)    
Max Wind Speed 25 mph    
Max Gust Speed 31 mph    
Visibility 10 miles    
Events      
Averages and records for this station are not official NWS values.
T = Trace of Precipitation, MM = Missing Value Source: NWS Daily Summary

Daily Weather History Graph

Daily Weather History Graph

Search for Another Location

Airport or City:

Trip Planner

Search our weather history database for the weather conditions in past years. The results will help you decide how hot, cold, wet, or windy it might be!

Date:

Astronomy

Jan. 31, 2012 Rise Set
Actual Time 7:24 AM EST 5:40 PM EST
Civil Twilight 6:57 AM EST 6:08 PM EST
Nautical Twilight 6:25 AM EST 6:40 PM EST
Astronomical Twilight 5:54 AM EST 7:11 PM EST
Moon 11:30 AM EST (1/31) 1:10 AM EST (1/31)
Length of Visible Light 11h 11m
Length of Day
10h 16m
First Quarter, 55% of the Moon is Illuminated
Jan 31
First Quarter
Feb 7
Full
Feb 14
Last Quarter
Feb 21
New
Feb 29
First Quarter

Hourly Weather History & Observations

Time (EST) Temp. Windchill Dew Point Humidity Pressure Visibility Wind Dir Wind Speed Gust Speed Precip Events Conditions
12:15 AM 39.2 °F 29.0 °F 19.4 °F 45% 30.26 in 10.0 mi WSW 21.9 mph 28.8 mph N/A   Clear
12:55 AM 39.2 °F 29.3 °F 19.4 °F 45% 30.25 in 10.0 mi West 20.7 mph 24.2 mph N/A   Clear
1:15 AM 39.2 °F 29.8 °F 19.4 °F 45% 30.25 in 10.0 mi West 18.4 mph 24.2 mph N/A   Clear
1:35 AM 39.2 °F 29.8 °F 19.4 °F 45% 30.25 in 10.0 mi West 18.4 mph - N/A   Clear
1:55 AM 39.2 °F 29.6 °F 19.4 °F 45% 30.25 in 10.0 mi West 19.6 mph 31.1 mph N/A   Clear
2:15 AM 39.2 °F 29.6 °F 19.4 °F 45% 30.24 in 10.0 mi West 19.6 mph 24.2 mph N/A   Clear
2:36 AM 39.2 °F 29.8 °F 19.4 °F 45% 30.24 in 10.0 mi West 18.4 mph 24.2 mph N/A   Clear
2:55 AM 39.2 °F 29.6 °F 19.4 °F 45% 30.24 in 10.0 mi West 19.6 mph 28.8 mph N/A   Clear
3:17 AM 39.2 °F 29.6 °F 19.4 °F 45% 30.24 in 10.0 mi West 19.6 mph 26.5 mph N/A   Clear
3:35 AM 39.2 °F 29.0 °F 19.4 °F 45% 30.24 in 10.0 mi West 21.9 mph 27.6 mph N/A   Clear
3:55 AM 39.2 °F 29.0 °F 19.4 °F 45% 30.23 in 10.0 mi West 21.9 mph 27.6 mph N/A   Clear
4:15 AM 39.2 °F 29.0 °F 19.4 °F 45% 30.24 in 10.0 mi West 21.9 mph 29.9 mph N/A   Clear
4:38 AM 39.2 °F 28.7 °F 19.4 °F 45% 30.24 in 10.0 mi West 23.0 mph - N/A   Clear
4:55 AM 39.2 °F 28.3 °F 19.4 °F 45% 30.24 in 10.0 mi West 25.3 mph - N/A   Clear
5:35 AM 39.2 °F 28.3 °F 19.4 °F 45% 30.25 in 10.0 mi West 25.3 mph 31.1 mph N/A   Clear
6:15 AM 39.2 °F 28.5 °F 19.4 °F 45% 30.24 in 10.0 mi West 24.2 mph - N/A   Clear
6:37 AM 39.2 °F 29.3 °F 19.4 °F 45% 30.25 in 10.0 mi West 20.7 mph 28.8 mph N/A   Clear
6:55 AM 39.2 °F 28.3 °F 19.4 °F 45% 30.25 in 10.0 mi West 25.3 mph 29.9 mph N/A   Clear
7:15 AM 39.2 °F 29.3 °F 19.4 °F 45% 30.25 in 10.0 mi West 20.7 mph - N/A   Clear
7:35 AM 39.2 °F 28.5 °F 19.4 °F 45% 30.26 in - West 24.2 mph 31.1 mph N/A   Unknown
7:55 AM 39.2 °F 28.7 °F 19.4 °F 45% 30.27 in 10.0 mi West 23.0 mph 28.8 mph N/A   Clear
8:15 AM 39.2 °F 28.7 °F 19.4 °F 45% 30.27 in 10.0 mi West 23.0 mph 28.8 mph N/A   Clear
8:35 AM 41.0 °F 31.6 °F 19.4 °F 42% 30.28 in 10.0 mi West 20.7 mph 27.6 mph N/A   Clear
8:55 AM 42.8 °F 34.0 °F 19.4 °F 39% 30.27 in 10.0 mi West 20.7 mph 29.9 mph N/A   Clear
9:15 AM 42.8 °F 34.0 °F 19.4 °F 39% 30.27 in 10.0 mi West 20.7 mph 31.1 mph N/A   Clear
9:35 AM 42.8 °F 34.0 °F 19.4 °F 39% 30.27 in 10.0 mi West 20.7 mph 31.1 mph N/A   Clear
9:55 AM 44.6 °F 35.9 °F 19.4 °F 37% 30.27 in 10.0 mi West 23.0 mph 31.1 mph N/A   Clear
10:17 AM 44.6 °F 35.5 °F 19.4 °F 37% 30.27 in 10.0 mi West 25.3 mph 29.9 mph N/A   Clear
10:35 AM 44.6 °F 36.4 °F 19.4 °F 37% 30.27 in 10.0 mi West 20.7 mph 27.6 mph N/A   Clear
10:57 AM 46.4 °F 38.5 °F 19.4 °F 34% 30.27 in 10.0 mi WNW 21.9 mph 29.9 mph N/A   Scattered Clouds
11:15 AM 46.4 °F 38.5 °F 19.4 °F 34% 30.27 in 10.0 mi West 21.9 mph 26.5 mph N/A   Clear
11:37 AM 48.2 °F - 19.4 °F 32% 30.26 in 10.0 mi West 15.0 mph 24.2 mph N/A   Clear
11:55 AM 48.2 °F - 21.2 °F 34% 30.26 in 10.0 mi West 16.1 mph 23.0 mph N/A   Clear
12:15 PM 50.0 °F - 21.2 °F 32% 30.25 in 10.0 mi West 16.1 mph 27.6 mph N/A   Clear
12:55 PM 51.8 °F - 21.2 °F 30% 30.23 in 10.0 mi West 15.0 mph 26.5 mph N/A   Clear
1:15 PM 51.8 °F - 21.2 °F 30% 30.22 in 10.0 mi West 18.4 mph 23.0 mph N/A   Clear
1:38 PM 53.6 °F - 23.0 °F 30% 30.22 in 10.0 mi West 15.0 mph 18.4 mph N/A   Clear
1:55 PM 53.6 °F - 23.0 °F 30% 30.21 in 10.0 mi West 15.0 mph 23.0 mph N/A   Clear
2:15 PM 53.6 °F - 24.8 °F 33% 30.21 in 10.0 mi WSW 18.4 mph 23.0 mph N/A   Clear
2:35 PM 53.6 °F - 24.8 °F 33% 30.20 in 10.0 mi WSW 16.1 mph 24.2 mph N/A   Clear
2:55 PM 55.4 °F - 24.8 °F 31% 30.20 in 10.0 mi West 15.0 mph 20.7 mph N/A   Clear
3:15 PM 55.4 °F - 24.8 °F 31% 30.20 in 10.0 mi WSW 21.9 mph 26.5 mph N/A   Clear
3:37 PM 53.6 °F - 24.8 °F 33% 30.21 in 10.0 mi West 19.6 mph 25.3 mph N/A   Clear
3:55 PM 53.6 °F - 24.8 °F 33% - 10.0 mi WSW 17.3 mph 27.6 mph N/A   Clear
4:15 PM 53.6 °F - 24.8 °F 33% 30.21 in 10.0 mi West 19.6 mph 31.1 mph N/A   Clear
4:35 PM 53.6 °F - 24.8 °F 33% 30.21 in 10.0 mi WSW 12.7 mph 23.0 mph N/A   Clear
4:55 PM 53.6 °F - 24.8 °F 33% 30.21 in 10.0 mi West 17.3 mph 20.7 mph N/A   Scattered Clouds
5:15 PM 53.6 °F - 24.8 °F 33% 30.21 in 10.0 mi WSW 12.7 mph - N/A   Scattered Clouds
5:37 PM 51.8 °F - 24.8 °F 35% 30.21 in 10.0 mi WSW 11.5 mph - N/A   Scattered Clouds
5:55 PM 48.2 °F - 24.8 °F 40% 30.21 in 10.0 mi SW 10.4 mph - N/A   Scattered Clouds
6:15 PM 48.2 °F - 24.8 °F 40% 30.22 in 10.0 mi SW 9.2 mph - N/A   Clear
6:35 PM 48.2 °F - 24.8 °F 40% 30.22 in 10.0 mi SW 11.5 mph - N/A   Clear
6:55 PM 48.2 °F - 24.8 °F 40% 30.22 in 10.0 mi WSW 15.0 mph - N/A   Clear
7:17 PM 48.2 °F - 24.8 °F 40% 30.21 in 10.0 mi WSW 17.3 mph - N/A   Scattered Clouds
7:35 PM 48.2 °F - 24.8 °F 40% 30.22 in 10.0 mi WSW 16.1 mph - N/A   Scattered Clouds
7:55 PM 48.2 °F - 24.8 °F 40% 30.22 in 10.0 mi WSW 20.7 mph 26.5 mph N/A   Clear
8:15 PM 48.2 °F - 24.8 °F 40% 30.22 in 10.0 mi WSW 18.4 mph 24.2 mph N/A   Mostly Cloudy
8:35 PM 48.2 °F - 24.8 °F 40% 30.21 in 10.0 mi WSW 15.0 mph 24.2 mph N/A   Scattered Clouds
8:55 PM 46.4 °F 39.5 °F 23.0 °F 40% 30.21 in 10.0 mi WSW 17.3 mph - N/A   Scattered Clouds
9:17 PM 46.4 °F 40.4 °F 23.0 °F 40% 30.21 in 10.0 mi WSW 13.8 mph 19.6 mph N/A   Scattered Clouds
9:35 PM 48.2 °F - 21.2 °F 34% 30.21 in 10.0 mi WSW 16.1 mph 23.0 mph N/A   Mostly Cloudy
9:55 PM 48.2 °F - 21.2 °F 34% 30.20 in 10.0 mi WSW 19.6 mph 23.0 mph N/A   Mostly Cloudy
10:15 PM 48.2 °F - 21.2 °F 34% 30.20 in 10.0 mi WSW 21.9 mph 25.3 mph N/A   Scattered Clouds
10:35 PM 48.2 °F - 19.4 °F 32% 30.19 in 10.0 mi West 20.7 mph 27.6 mph N/A   Overcast
10:55 PM 48.2 °F - 19.4 °F 32% 30.19 in 10.0 mi WSW 20.7 mph 25.3 mph N/A   Overcast
11:16 PM 48.2 °F - 19.4 °F 32% 30.19 in 10.0 mi WSW 19.6 mph 28.8 mph N/A   Overcast
11:35 PM 48.2 °F - 19.4 °F 32% 30.19 in 10.0 mi West 18.4 mph 27.6 mph N/A   Mostly Cloudy
11:55 PM 48.2 °F - - N/A% 30.19 in 10.0 mi West 17.3 mph 23.0 mph N/A   Scattered Clouds